Location: Cañada de la Miga
(34.7595°N, 106.2317°W)
Time: 12:39:08
(UTC+00:00)

Transit 2A Rocket - All Passes

Search period start: 08 December 2021 00:00
Search period end: 18 December 2021 00:00
Orbit: 584 x 918 km, 66.7° (Epoch: 07 December)

Date Brightness Start Highest point End Pass type
(mag) Time Alt. Az. Time Alt. Az. Time Alt. Az.
08 Dec - 11:52:18 10° SE 11:55:38 16° ESE 11:59:07 10° ENE visible
08 Dec - 13:32:03 10° SW 13:37:34 62° WNW 13:43:31 10° NNE visible
08 Dec - 15:20:23 10° NW 15:21:29 10° NW 15:22:35 10° NNW daylight
08 Dec - 22:19:33 10° NNW 22:25:24 53° ENE 22:30:48 10° SE daylight
09 Dec - 00:03:27 10° WNW 00:07:28 19° WSW 00:11:16 10° SSW daylight
09 Dec - 12:49:21 10° SSW 12:54:52 77° ESE 13:00:52 10° NNE visible
09 Dec - 14:34:32 10° W 14:38:14 17° NW 14:42:03 10° N daylight
09 Dec - 21:37:13 10° N 21:42:30 32° NE 21:47:29 10° ESE daylight
09 Dec - 23:19:50 10° NW 23:25:06 35° WSW 23:30:00 10° S daylight
10 Dec - 12:07:08 10° S 12:12:20 43° ESE 12:17:55 10° NE visible
10 Dec - 13:50:21 10° WSW 13:55:08 27° NW 14:00:11 10° N daylight
10 Dec - 20:55:11 10° N 20:59:28 20° NE 21:03:32 10° E daylight
10 Dec - 22:36:47 10° NNW 22:42:38 63° WSW 22:48:00 10° SSE daylight
11 Dec - 11:25:33 10° SSE 11:29:55 24° ESE 11:34:33 10° NE visible
11 Dec - 13:06:49 10° SW 13:12:11 44° WNW 13:17:57 10° NNE visible
11 Dec - 20:13:53 10° NNE 20:16:16 12° NE 20:18:35 10° ENE daylight
11 Dec - 21:54:01 10° NNW 21:59:59 75° ENE 22:05:28 10° SSE daylight
11 Dec - 23:39:21 10° WNW 23:41:44 13° W 23:44:02 10° SW daylight
12 Dec - 10:45:11 10° SE 10:47:39 13° E 10:50:11 10° ENE visible
12 Dec - 12:23:49 10° SSW 12:29:24 76° WNW 12:35:26 10° NNE visible
12 Dec - 14:10:36 10° WNW 14:13:07 13° NW 14:15:40 10° NNW daylight
12 Dec - 21:11:32 10° NNW 21:17:12 43° ENE 21:22:27 10° SE daylight
12 Dec - 22:54:55 10° NW 22:59:27 24° WSW 23:03:43 10° SSW daylight
13 Dec - 11:41:16 10° SSW 11:46:45 63° ESE 11:52:41 10° NNE visible
13 Dec - 13:25:43 10° W 13:29:55 20° NW 13:34:17 10° N visible
13 Dec - 20:29:17 10° N 20:34:15 26° NE 20:38:54 10° ESE daylight
13 Dec - 22:11:32 10° NW 22:17:03 43° WSW 22:22:08 10° S daylight
14 Dec - 10:59:15 10° S 11:04:16 35° ESE 11:09:38 10° NE visible
14 Dec - 12:41:48 10° WSW 12:46:53 32° NW 12:52:16 10° N visible
14 Dec - 19:47:27 10° N 19:51:09 17° NE 19:54:41 10° E daylight
14 Dec - 21:28:36 10° NNW 21:34:31 77° WSW 21:39:55 10° SSE daylight
15 Dec - 10:17:59 10° SSE 10:21:55 20° ESE 10:26:02 10° ENE visible
15 Dec - 11:58:28 10° SW 12:03:59 54° WNW 12:09:55 10° NNE visible
15 Dec - 19:07:18 10° NE 19:07:53 10° NE 19:08:28 10° NE daylight
15 Dec - 20:45:56 10° NNW 20:51:49 61° ENE 20:57:12 10° SE daylight
15 Dec - 22:30:22 10° WNW 22:33:43 16° WSW 22:36:57 10° SW daylight
16 Dec - 09:39:23 10° ESE 09:39:39 10° E 09:39:55 10° E visible
16 Dec - 11:15:38 10° SSW 11:21:15 89° ESE 11:27:20 10° NNE visible
16 Dec - 13:01:27 10° W 13:04:46 15° NW 13:08:10 10° N visible
16 Dec - 20:03:32 10° N 20:08:58 36° NE 20:14:00 10° ESE daylight
16 Dec - 21:46:29 10° NW 21:51:25 29° WSW 21:56:00 10° SSW daylight
17 Dec - 10:33:16 10° S 10:38:40 51° ESE 10:44:28 10° NE visible
17 Dec - 12:17:00 10° WSW 12:21:37 24° NW 12:26:28 10° N visible
17 Dec - 19:21:25 10° N 19:25:58 22° NE 19:30:16 10° E daylight
17 Dec - 21:03:17 10° NW 21:08:59 53° WSW 21:14:10 10° S daylight
